Flag for Greenland Weather past 2 weeks in Danmarkshavn, Greenland

2 °F

Snow. Passing clouds.

Feels Like: -28 °F
Forecast: 0 / 2 °F
Wind: 52 mph from North

Location: Danmarkshavn

Current Time: Nov 27, 2015 at 6:45:31 PM

Latest Report: Nov 27, 2015 at 6:00 PM

Visibility: 0 mi

Pressure: 29.55 "Hg

Humidity: 77%

Dew point: -3 °F

Location of DanmarkshavnLocation

Historic Weather in Danmarkshavn — Graph


Danmarkshavn temperature yesterday

Maximum temperature yesterday: -3 °F (at 1:00 AM)
Minimum temperature yesterday: -9 °F (at 3:00 PM)
Average temperature yesterday: -6 °F

Past Weeks' High & Low Weather Summary

High26 °F (Nov 12, 7:00 PM)94% (Nov 13, 8:00 AM)30.24 "Hg (Nov 13, 8:00 AM)
Low-9 °F (Nov 26, 3:00 PM)44% (Nov 22, 6:00 AM)29.29 "Hg (Nov 27, 1:00 AM)
Average6 °F68%29.76 "Hg
* Reported Nov 12 5:00 PM — Nov 27 5:00 PM, Danmarkshavn, Weather by CustomWeather, © 2015

Note: Actual official high and low records may vary slightly from our data, if they occured in-between our weather recording intervals... More about our weather records


Danmarkshavn weather history for previous 24 hours

Time TempWeatherWind HumidityBarometerVisibility
5:00 PM
Fri, Nov 27
2 °FSnow. Partly sunny.54 mph79%29.50 "Hg0 mi
4:00 PM2 °FSnow. Partly sunny.54 mph80%29.50 "Hg0 mi
3:00 PM2 °FSnow. Partly sunny.51 mph81%29.50 "Hg0 mi
2:00 PM2 °FSnow. Partly sunny.51 mph81%29.54 "Hg0 mi
1:00 PM2 °FSnow. Passing clouds.51 mph80%29.55 "Hg0 mi
12:00 PM2 °FSnow. Passing clouds.47 mph81%29.55 "Hg0 mi
11:00 AM1 °FSnow. Passing clouds.52 mph82%29.50 "Hg0 mi
10:00 AM1 °FSnow. Passing clouds.56 mph82%29.47 "Hg0 mi
9:00 AM0 °FSnow. Passing clouds.59 mph82%29.44 "Hg0 mi
8:00 AM0 °FSnow. Sunny.64 mph82%29.38 "Hg0 mi
7:00 AM0 °FSnow. Scattered clouds.66 mph82%29.32 "Hg0 mi
5:00 AM1 °FLight snow. Passing clouds.62 mph82%29.32 "Hg0 mi
4:00 AM2 °FSnow. Overcast.64 mph83%29.29 "Hg0 mi
2:00 AM2 °FSnow. Overcast.46 mph83%29.32 "Hg0 mi
1:00 AM1 °FSnow. Cloudy.48 mph81%29.29 "Hg0 mi
12:00 AM0 °FSnow. Low clouds.31 mph82%29.35 "Hg0 mi
8:00 PM
Thu, Nov 26
-3 °FSleet. Passing clouds.28 mph79%29.38 "Hg0 mi
7:00 PM-4 °FSnow flurries. Overcast.28 mph72%29.41 "Hg1 mi
6:00 PM-5 °FSnow flurries. Overcast.26 mph74%29.41 "Hg1 mi
Weather by CustomWeather, © 2015

See weather overviewHow to use our weather pages